Время (UTC), дата Ветер
(°,м/с) 
Видим.   Явления Облачность Т
(°С)
Тd
(°С)
f(%) Тe
(°С)
Pmin
(гПа)
dP
(гПа)
Po
(мм)
O2
(г/м3)
Тmin Tmax R s Состояние
почвы
00 01.08.12 050 (СВ) >10 км  в посл. час дождь  10/10 1000 м 
[Sc]
+16.6 +14.5 87 +26  1013.6  0.9  753  283  +14.6    0.0     
03 01.08.12 050 (СВ) >10 км  в посл. час ливневой дождь  9/3 600 м кучево-дожд., средняя, верхняя 
[Cb cap|Ac As|Cc]
+19.2 +14 72 +27  1013.7  0.1  753  281           
06 01.08.12 070 (В) >10 км  {ливн. осадки}  3/1 600 м кучево-дожд., средняя, верхняя 
[Cb cap|Ac lent|Ci ing]
+22 +12.1 53 +26  1013.3  -0.2  753  279           
09 01.08.12 180 (Ю) >10 км    1/1 600 м кучево-дожд. 
[Cb cap]
+20.8 +15.4 71 +30  1013  -0.3  753  279    +22.7       
12 01.08.12 270 (З) >10 км    ясно 
+15.9 +13 83 +22  1014.5  1.3  754  285    +22.7  0.1     
15 01.08.12 тихо ()   >10 км  туман поземный  ясно 
+12.6 +11.9 96 +16  1015.1  0.4  754  288           
18 01.08.12 тихо ()   >10 км  туман поземный  ясно 
+10.8 +10.4 97 +12  1015.2  0.1  754  291           
21 01.08.12 070 (В) 0500 м  туман  ясно 
+11.8 +11.8 100 +16  1016.1  0.9  755  289           
00 02.08.12 090 (В) 2000 м  в посл. час туман  8/8 300 м 
[St]
+15.2 +14.1 93 +24  1016.7  0.6  756  285  +9.9         
03 02.08.12 180 (Ю) >10 км    4/1 1000 м верхняя 
[Cu hum|Ci fib]
+21.6 +17.4 77 +34  1016.2  -0.2  755  278           
06 02.08.12 160 (Ю) >10 км    8/1 1000 м верхняя 
[Cu hum|Ci]
+25.2 +17.4 62 +38  1014.6  -1.6  754  274           
09 02.08.12 180 (Ю) >10 км    8/0 средняя 
[Ac As]
+23.2 +18.8 76 +39  1014.6  754  276    +25.7       
12 02.08.12 180 (Ю) >10 км  местами туман поземный  8/0 средняя, верхняя 
[Ac trans|Ci sp]
+20 +18.4 90 +35  1015.1  0.4  755  279    +25.7       
15 02.08.12 тихо ()   >10 км  пыльная буря  8/0 средняя 
[Ac trans]
+17.3 +16.5 95 +28  1015.1  755  282           
18 02.08.12 340 (С) >10 км  туман поземный  8/0 средняя 
[Ac trans]
+16 +15.7 98 +27  1015.1  755  284           
21 02.08.12 070 (В) 0500 м  туман  10/0 средняя 
[Ac und]
+16 +16 100 +27  1015.1  755  284           
00 03.08.12 090 (В) >10 км  {туман}  10/10 200 м 
[Frnb]
+19 +17.5 91 +33  1015.5  0.4  755  280  +15.7         
03 03.08.12 110 (В) >10 км    10/9 300 м кучево-дожд., средняя 
[Cb cap|As op]
+21.8 +18.3 80 +37  1014.3  -1.1  754  277           
06 03.08.12 180 (Ю) 10 км  в посл. час гроза{ливн. осадки}  10/9 600 м кучево-дожд., средняя 
[Cb cap|As op]
+20.6 +19 91 +37  1013.4  -0.8  753  278           
12 03.08.12 160 (Ю) 2000 м  морось{ливн. осадки, дождь}  10/10 100 м 
[St]
+18.6 +18.3 98 +35  1013.4  -0.2  753  280    +22.3     
15 03.08.12 110 (В) 2000 м  морось  10/10 100 м 
[St]
+18.2 +18 99 +34  1012.6  -0.8  753  280           
18 03.08.12 тихо ()   2000 м  слаб. морось  10/10 100 м 
[St]
+17.8 +17.6 99 +31  1012.1  -0.5  752  281           
21 03.08.12 тихо ()   1000 м  дымка{морось}  10/10 200 м 
[St]
+17.9 +17.6 98 +31  1012  -0.1  752  280           
00 04.08.12 020 (С) >10 км    8/8 300 м 
[St]
+19.9 +18.3 90 +36  1011.7  -0.3  752  278  +17.7       
03 04.08.12 230 (ЮЗ) >10 км    6/6 600 м кучево-дожд. 
[Cb cap]
+24 +19 74 +40  1010.9  -0.6  752  274           
06 04.08.12 250 (З) >10 км    9/6 600 м кучево-дожд., средняя 
[Cb calv|Ac trans]
+24.6 +18.6 69 +40  1009.9  -1  751  273           
09 04.08.12 250 (З) >10 км    6/3 1000 м верхняя 
[Sc diur, vesp|Ci fib]
+25.4 +19.9 72 +44  1008.6  -1.2  750  272    +26.8       
12 04.08.12 250 (З) >10 км    4/3 1000 м средняя 
[Sc diur, vesp|Ac trans]
+20.4 +19.1 92 +37  1009.2  0.5  750  277    +26.8       
15 04.08.12 200 (Ю) >10 км  туман поземный  1/0 средняя 
[Ac trans]
+18 +17.3 96 +32  1009.2  -0.2  750  280           
18 04.08.12 250 (З) >10 км    ясно 
+17.3 +16.8 97 +31  1008  -1.2  749  280           
21 04.08.12 250 (З) >10 км    8/0 средняя, верхняя 
[Ac lent|Ci]
+16.8 +16.5 98 +29  1007.8  -0.2  749  281           
00 05.08.12 360 (С) >10 км    6/1 1000 м верхняя 
[Cu hum|Ci fib]
+23.6 +18.2 72 +38  1008  0.4  749  274  +16         
03 05.08.12 360 (С) >10 км    6/5 600 м кучево-дожд., верхняя 
[Cb cap|Ci fib]
+27.7 +17.6 54 +41  1006.9  -1  749  270           
06 05.08.12 340 (С) >10 км    3/3 600 м кучево-дожд. 
[Cb cap]
+28.8 +18.4 53 +44  1005.9  -1  748  268           
09 05.08.12 290 (З) >10 км    1/1 1000 м 
[Sc diur, vesp]
+29.1 +19.8 57 +47  1005.6  -0.3  748  268    +29.9       
12 05.08.12 тихо ()   10 км    ясно 
+22.6 +20 85 +41  1006.6  0.9  748  274    +29.9       
15 05.08.12 340 (С) 10 км    ясно 
+19.7 +18.6 93 +37  1006.8  748  277           
18 05.08.12 050 (СВ) 10 км    10/0 верхняя 
[Cs]
+19.1 +18 93 +34  1007.7  0.9  749  278           
21 05.08.12 340 (С) 4000 м  дымка  3/0 верхняя 
[Ci fib]
+18.8 +17.5 92 +33  1008  0.3  749  278           
00 06.08.12 090 (В) 4000 м  дымка  ясно 
+22.1 +18.9 82 +38  1008.7  0.9  750  275  +17.9         
03 06.08.12 200 (Ю) 4000 м  дымка  10/0 верхняя 
[Cs]
+27 +20.8 69 +48  1008.5  -0.1  750  270           
06 06.08.12 230 (ЮЗ) 4000 м  дымка  10/0 верхняя 
[Cs]
+28.8 +21.7 66 +52  1007.9  -0.6  749  268           
09 06.08.12 230 (ЮЗ) 10 км    8/0 верхняя 
[Ci fib]
+26.9 +22.6 77 +52  1007.5  -0.4  749  269    +29.2       
12 06.08.12 230 (ЮЗ) 10 км    5/0 средняя 
[Ac lent]
+22.6 +21.2 92 +44  1007.6  749  273    +29.2       
15 06.08.12 тихо ()   10 км  местами туман поземный  6/0 средняя 
[Ac lent]
+21 +20.4 96 +41  1007.6  749  275           
18 06.08.12 200 (Ю) 10 км  туман поземный  8/0 средняя 
[Ac lent]
+19.4 +18.9 97 +37  1007.8  749  277           
21 06.08.12 230 (ЮЗ) 4000 м  дымка  9/0 средняя, верхняя 
[Ac lent|Ci]
+18.8 +18.5 98 +35  1008  0.2  749  278           
00 07.08.12 250 (З) 10 км    3/0 верхняя 
[Ci fib]
+25 +22.2 84 +49  1007.1  -0.6  749  271  +18.3         
03 07.08.12 250 (З) >10 км    1/1 1000 м 
[Cu hum]
+30.7 +23.2 64 +57  1005.9  -1  748  265           
06 07.08.12 250 (З) >10 км    3/3 1000 м 
[Cu med, cong]
+32.6 +23.4 58 +60  1005  -0.9  747  263           
09 07.08.12 250 (З) >10 км    8/3 1000 м верхняя 
[Cu hum|Ci]
+30.3 +24.9 73 +62  1004.9  -0.1  747  264    +32.7       
12 07.08.12 250 (З) >10 км    ясно 
+25.8 +23.8 89 +54  1005.8  0.7  748  269    +32.7       
15 07.08.12 250 (З) >10 км    ясно 
+23.2 +21.5 90 +46  1005.9  748  272           
18 07.08.12 160 (Ю) >10 км    ясно 
+21.1 +19.9 93 +40  1006.6  0.7  748  275           
21 07.08.12 160 (Ю) 0200 м  туман  ?/?  
+21.2 +21.2 100 +43  1006.4  -0.2  748  274           
00 08.08.12 180 (Ю) 2000 м  дымка{туман}  10/10 300 м 
[St]
+22.7 +21.3 92 +45  1006.4  748  273  +20.4         
03 08.08.12 140 (ЮВ) >10 км    3/1 300 м средняя 
[St|Ac trans]
+28.4 +21.9 68 +52  1004.6  -1.7  747  267           
06 08.08.12 180 (Ю) >10 км    3/3 1000 м 
[Cu med, cong]
+28.8 +22.3 68 +53  1002.5  -2  745  266           
09 08.08.12 200 (Ю) >10 км    3/1 600 м кучево-дожд., верхняя 
[Cb cap|Ci ing]
+28.4 +23.5 75 +56  1001.8  -0.7  745  266    +30       
12 08.08.12 180 (Ю) >10 км    3/3 600 м кучево-дожд., верхняя 
[Cb cap|Ci ing]
+25 +22.9 88 +51  1001.6  -0.2  745  269    +30       
15 08.08.12 200 (Ю) >10 км    8/0 верхняя 
[Cc]
+23.1 +21.4 90 +45  1000.6  -1.1  744  271           
18 08.08.12 250 (З) >10 км    9/0 средняя, верхняя 
[Ac As|Ci sp]
+22.4 +20.6 90 +43  1000.2  -0.4  744  272           
21 08.08.12 250 (З) 4000 м  в посл. час ливневой дождь  10/6 600 м кучево-дожд., средняя 
[Cb cap|Ac As]
+21.8 +21.5 98 +44  1000.4  0.2  744  272           
00 09.08.12 250 (З) 10 км  в посл. час ливневой дождь  9/3 300 м кучево-дожд., средняя 
[Cb cap|Ac As]
+23.2 +22.2 94 +48  1001.7  1.3  745  271  +21.7       
03 09.08.12 270 (З) >10 км    9/3 600 м кучево-дожд., средняя 
[Cb calv|Ac trans]
+24.8 +17.6 64 +39  1002.6  0.9  745  271           
06 09.08.12 270 (З) >10 км    9/0 средняя 
[Ac trans]
+25.9 +16.4 56 +37  1002.7  0.2  746  271           
09 09.08.12 250 (З) >10 км    8/0 средняя 
[Ac trans]
+24.4 +19.4 74 +42  1003.3  0.5  746  271    +27       
12 09.08.12 тихо ()   >10 км    6/0 средняя 
[Ac lent]
+20.8 +19.2 91 +38  1004.4  747  275    +27  0.4     
15 09.08.12 320 (СЗ) >10 км    6/0 средняя 
[Ac lent]
+19 +18.2 95 +36  1005.3  0.7  747  277           
18 09.08.12 360 (С) >10 км    3/0 средняя 
[Ac lent]
+17 +15.3 90 +27  1005.3  747  280           
21 09.08.12 290 (З) >10 км    8/0 средняя, верхняя 
[Ac lent|Ci fib]
+14.8 +13.7 93 +23  1006.8  1.4  748  283           
00 10.08.12 360 (С) >10 км    6/0 средняя, верхняя 
[Ac lent|Ci fib]
+18.5 +15.6 83 +30  1007.4  0.7  749  279  +14.6         
03 10.08.12 110 (В) >10 км    3/1 1000 м верхняя 
[Cu hum|Ci fib]
+25.4 +14.8 52 +34  1006.5  -0.7  748  273           
06 10.08.12 230 (ЮЗ) >10 км    3/3 1000 м верхняя 
[Sc diur, vesp|Ci fib]
+26.5 +13.7 45 +33  1005.8  -0.6  748  272           
09 10.08.12 230 (ЮЗ) >10 км    3/1 1000 м средняя, верхняя 
[Sc diur, vesp|Ac trans|Ci fib]
+25.5 +16.1 56 +36  1005.1  -0.7  747  272    +27.5       
12 10.08.12 290 (З) >10 км    3/1 1000 м средняя 
[Sc diur, vesp|Ac trans]
+19 +15.8 82 +30  1006.2  0.8  748  278    +27.5       
15 10.08.12 320 (СЗ) >10 км    6/0 средняя 
[Ac lent]
+17.2 +15.3 89 +28  1005.4  -0.8  747  280           
18 10.08.12 тихо ()   >10 км    9/4 1000 м средняя 
[Sc|Ac lent]
+15.8 +14.6 93 +24  1005  -0.4  747  281           
21 10.08.12 тихо ()   >10 км    9/3 1000 м средняя, верхняя 
[Sc|Ac lent|Cc]
+14.8 +14.4 97 +23  1005.4  0.3  747  283           
00 11.08.12 360 (С) >10 км    9/0 средняя, верхняя 
[Ac trans|Cc]
+22.2 +15.7 67 +32  1004.5  -0.6  747  275  +14.4         
03 11.08.12 270 (З) >10 км    8/5 600 м кучево-дожд., средняя 
[Cb cap|Ac lent]
+26.9 +14.8 47 +35  1003.8  -0.6  746  271           
06 11.08.12 250 (З) >10 км    9/8 600 м кучево-дожд., средняя, верхняя 
[Cb cap|Ac lent|Ci fib]
+27.2 +14 44 +34  1002.3  -1.4  745  270           
09 11.08.12 290 (З) >10 км    10/8 1000 м средняя 
[Sc|Ac lent]
+21.4 +15 67 +30  1002.8  0.4  746  275    +28.4       
12 11.08.12 230 (ЮЗ) >10 км    9/8 1000 м средняя 
[Sc|Ac trans]
+19 +16.3 84 +32  1003.6  0.6  746  277    +28.4       
15 11.08.12 тихо ()   >10 км    10/8 1000 м средняя 
[Sc|Ac lent]
+18.5 +16.2 86 +29  1003  -0.6  746  278           
18 11.08.12 360 (С) >10 км  {дождь}  10/8 1000 м средняя 
[Sc|Ac lent]
+17.7 +16 90 +30  1002.2  -0.8  745  278           
21 11.08.12 290 (З) >10 км    10/8 1000 м средняя 
[Sc|Ac lent]
+16.3 +14.9 91 +26  1002.1  -0.1  745  280           
03 12.08.12 340 (С) >10 км    8/4 600 м кучево-дожд., средняя 
[Cb calv|Ac trans]
+22.8 +12.3 52 +27  1000.9  -0.7  744  274           
06 12.08.12 320 (СЗ) >10 км  слаб. ливневой дождь  8/8 600 м кучево-дожд. 
[Cb cap]
+18.4 +14.4 78 +28  1000.5  -0.6  744  278           
12 12.08.12 290 (З) >10 км  {ливн. осадки}  3/1 1000 м средняя 
[Sc diur, vesp|Ac lent]
+14.2 +11.6 84 +18  1001.4  1.1  744  283    +23.3     
15 12.08.12 160 (Ю) >10 км    ясно 
+12.6 +11.1 91 +17  1001.4  744  285           
18 12.08.12 020 (С) >10 км    ясно 
+10.6 +10 96 +13  1001.3  -0.3  744  287           
21 12.08.12 тихо ()   >10 км    8/8 1000 м 
[Sc]
+11.4 +11 97 +14  1000.9  -0.2  744  286           
00 13.08.12 020 (С) >10 км    3/0 средняя 
[Ac trans]
+17.4 +12.8 74 +24  1000.7  -0.1  744  279  +9.9         
03 13.08.12 320 (СЗ) >10 км    3/3 600 м кучево-дожд., средняя 
[Cb calv|Ac cuf]
+21.8 +10.8 50 +24  999.5  -1  743  275           
06 13.08.12 320 (СЗ) >10 км    4/4 600 м кучево-дожд. 
[Cb cap]
+23.7 +10.6 44 +26  998.9  -0.6  743  273           
12 13.08.12 230 (ЮЗ) >10 км  {ливн. осадки}  10/3 1000 м средняя 
[Sc diur, vesp|Ac As]
+16.6 +15.1 91 +27  1001.7  1.5  745  280    +24.5  0.3     
15 13.08.12 тихо ()   >10 км    1/0 средняя 
[Ac lent]
+15 +13.9 93 +22  1002  0.2  745  282           
18 13.08.12 тихо ()   >10 км  туман поземный  ясно 
+12.2 +11.6 96 +16  1002.7  0.7  745  285           
21 13.08.12 тихо ()   >10 км  местами туман поземный  ясно 
+10.7 +10.5 99 +13  1004.2  1.3  746  287           
00 14.08.12 200 (Ю) >10 км    3/0 верхняя 
[Ci fib]
+18.6 +15.2 81 +29  1004.8  0.8  747  278  +9.8         
03 14.08.12 290 (З) >10 км    9/3 1000 м средняя, верхняя 
[Cu hum|Ac lent|Ci fib]
+25.4 +16.3 57 +36  1005.3  0.8  747  272           
06 14.08.12 250 (З) >10 км    10/3 1000 м кучево-дожд., средняя 
[Cb calv|As trans]
+24.8 +16.3 59 +36  1005  -0.4  747  272           
09 14.08.12 250 (З) >10 км    6/0 средняя, верхняя 
[Ac lent|Ci]
+23.8 +16.5 64 +35  1005.4  0.4  747  273    +26.1       
12 14.08.12 340 (С) >10 км    6/0 средняя, верхняя 
[Ac lent|Ci fib]
+18.3 +15.8 85 +30  1006.7  1.1  748  279    +26.1       
15 14.08.12 250 (З) >10 км    10/0 средняя 
[Ac und]
+17 +15.3 90 +27  1006.1  -0.6  748  280           
18 14.08.12 250 (З) >10 км    4/0 средняя 
[Ac lent]
+16 +14.4 90 +25  1005.2  -0.9  747  281           
21 14.08.12 тихо ()   >10 км    9/0 средняя, верхняя 
[Ac lent|Cc]
+16 +14.2 89 +23  1004.9  -0.3  747  281           
00 15.08.12 250 (З) >10 км  в посл. час ливневой дождь  9/8 600 м кучево-дожд., средняя 
[Cb cap|Ac lent]
+18.4 +17.1 92 +32  1005.3  0.4  747  278  +15         
03 15.08.12 230 (ЮЗ) >10 км    8/1 600 м кучево-дожд., средняя, верхняя 
[Cb calv|Ac lent|Cc]
+23 +17 69 +35  1004.3  -0.8  747  274           
06 15.08.12 250 (З) >10 км    8/4 600 м кучево-дожд., средняя, верхняя 
[Cb cap|Ac lent|Cc]
+26.4 +16.6 55 +38  1002.7  -1.4  746  270           
12 15.08.12 200 (Ю) >10 км  {гроза, ливн. осадки}  10/8 600 м кучево-дожд., средняя 
[Cb cap|Ac und]
+18.4 +17.6 95 +33  1005.1  0.8  747  278    +26.8     
15 15.08.12 360 (С) >10 км    5/0 средняя 
[Ac cuf]
+16.3 +16.1 99 +28  1005.5  0.4  747  281           
18 15.08.12 340 (С) >10 км    ясно 
+14.8 +13.7 93 +23  1006.6  748  283           
21 15.08.12 360 (С) >10 км    ясно 
+13.4 +11.5 88 +18  1008.9  2.3  750  286           
00 16.08.12 290 (З) >10 км    ясно 
+18.4 +11.1 62 +22  1010.7  1.9  751  282  +12.7       
03 16.08.12 360 (С) >10 км    ясно 
+23.3 +7.7 37 +23  1010.5  751  278           
06 16.08.12 180 (Ю) >10 км    ясно 
+25.8 +10.2 37 +27  1009.7  -0.8  751  275           
09 16.08.12 270 (З) >10 км    ясно 
+24.7 +13.5 50 +31  1010.1  0.4  751  275    +27       
12 16.08.12 250 (З) >10 км    1/0 средняя 
[Ac lent]
+17.7 +14.4 81 +27  1011.6  1.3  752  282    +27       
15 16.08.12 200 (Ю) >10 км    ясно 
+15.8 +13.7 87 +23  1011.7  0.1  752  284           
18 16.08.12 090 (В) >10 км    ясно 
+13 +11.9 93 +18  1011.8  752  287           
21 16.08.12 тихо ()   >10 км  туман поземный  ясно 
+10.9 +10.1 95 +12  1013.3  1.3  753  290           
00 17.08.12 140 (ЮВ) >10 км    ясно 
+18.7 +14.4 76 +28  1012.7  -0.3  753  281  +10.4         
03 17.08.12 230 (ЮЗ) >10 км    8/0 средняя, верхняя 
[Ac lent|Ci]
+24.5 +12.8 48 +30  1011.4  -1.1  752  276           
06 17.08.12 180 (Ю) >10 км    6/0 средняя, верхняя 
[Ac lent|Ci fib]
+26.6 +13 43 +32  1009.5  -1.8  751  273           
09 17.08.12 230 (ЮЗ) >10 км    8/4 600 м кучево-дожд., средняя, верхняя 
[Cb cap|Ac cast|Ci fib]
+24.9 +19 70 +41  1008.7  -0.9  750  272    +26.8       
12 17.08.12 140 (ЮВ) >10 км    9/5 1000 м средняя 
[Sc|Ac lent]
+21.8 +19.5 87 +39  1008.1  -0.6  749  275    +26.8       
15 17.08.12 180 (Ю) >10 км    10/5 1000 м средняя 
[Sc|Ac lent]
+20.9 +19.5 92 +38  1007.5  -0.6  749  276           
18 17.08.12 090 (В) >10 км    10/4 1000 м средняя 
[Sc|Ac trans]
+19.4 +18.1 92 +36  1006.8  -0.9  748  277           
21 17.08.12 050 (СВ) 10 км    9/3 1000 м средняя, верхняя 
[Cu hum|Ac lent|Cc]
+17.4 +16.9 97 +31  1006.3  -0.5  748  280           
00 18.08.12 090 (В) >10 км    8/3 1000 м средняя, верхняя 
[Cu hum|Ac cuf|Ci sp]
+21.9 +18.6 82 +38  1004.8  -1.3  747  274  +17.3         
03 18.08.12 230 (ЮЗ) >10 км    10/8 1000 м средняя 
[Sc|Ac lent]
+24 +20 78 +43  1004.8  747  272           
06 18.08.12 230 (ЮЗ) 2000 м  гроза, ливневой дождь  10/10 600 м кучево-дожд. 
[Cb cap]
+24.7 +20.3 77 +44  1003.9  -0.9  746  271           
12 18.08.12 250 (З) >10 км  {гроза, ливн. осадки}  6/3 1000 м средняя 
[Sc diur, vesp|Ac cuf]
+21.3 +20.1 93 +40  1004.2  1.2  746  274    +25.3  16     
15 18.08.12 200 (Ю) >10 км    ясно 
+20.1 +18.8 92 +36  1004.6  0.4  747  276           
18 18.08.12 250 (З) >10 км  туман поземный  ясно 
+18.4 +18.1 98 +35  1004.8  747  278           
21 18.08.12 тихо ()   0200 м  туман  ?/?  
+16.8 +16.8 100 +29  1004.8  747  280           
00 19.08.12 360 (С) 2000 м  дымка{туман}  10/0 верхняя 
[Cs]
+19 +18.4 96 +36  1005.9  1.1  748  277  +15.9         
03 19.08.12 180 (Ю) >10 км    10/8 1000 м средняя 
[Cu med, cong|As trans]
+24.3 +18.6 71 +40  1004.8  -0.9  747  272           
06 19.08.12 180 (Ю) >10 км    9/3 1000 м средняя, верхняя 
[Cu med, cong|Ac cuf|Ci]
+26.1 +18.8 64 +42  1004  -0.7  746  270           
09 19.08.12 250 (З) >10 км    4/4 600 м кучево-дожд. 
[Cb cap]
+25.2 +19.3 70 +42  1004.3  0.3  747  271    +27.3       
12 19.08.12 тихо ()   >10 км    1/1 600 м кучево-дожд. 
[Cb cap]
+20.9 +18.3 85 +36  1006.2  1.8  748  276    +27.3       
15 19.08.12 тихо ()   >10 км    ясно 
+18 +16.8 93 +30  1007.4  749  279           
18 19.08.12 050 (СВ) >10 км    ясно 
+16.2 +15.7 97 +28  1008  0.6  749  282           
21 19.08.12 050 (СВ) >10 км    ясно 
+13.8 +13.1 96 +21  1009  0.9  750  285           
00 20.08.12 090 (В) >10 км    1/0 средняя 
[Ac cast]
+18.6 +14.1 75 +27  1009.5  0.6  750  280  +13.4         
03 20.08.12 200 (Ю) >10 км    9/9 1000 м 
[Cu med, cong]
+24.6 +18.6 69 +40  1008.1  -1.2  749  273           
06 20.08.12 180 (Ю) >10 км    9/9 600 м кучево-дожд. 
[Cb calv]
+27.2 +17.2 54 +40  1006.3  -1.7  748  270           
09 20.08.12 180 (Ю) >10 км    9/8 1000 м кучево-дожд., средняя 
[Cb cap|Ac cuf]
+25.2 +18.8 68 +41  1005.5  -0.8  748  271    +27.4       
12 20.08.12 070 (В) >10 км    10/8 600 м кучево-дожд., средняя 
[Cb cap|Ac lent]
+22.3 +19.7 85 +40  1005  -0.6  747  274    +27.4       
15 20.08.12 020 (С) >10 км  в посл. час ливневой дождь  10/8 600 м кучево-дожд., средняя 
[Cb cap|Ac lent]
+21.1 +19.4 90 +39  1003.7  -1.2  746  274           
18 20.08.12 200 (Ю) >10 км  {ливн. осадки}  ясно 
+20 +18.6 92 +36  1003.6  -0.3  746  276           
21 20.08.12 230 (ЮЗ) 2000 м  дымка  10/6 600 м средняя 
[St|Ac trans]
+18.4 +18.1 98 +34  1004.7  747  278           
00 21.08.12 250 (З) 10 км    9/8 600 м кучево-дожд., средняя 
[Cb cap|Ac trans]
+22.4 +19.9 86 +41  1005.5  747  273  +18.3    0.0     
03 21.08.12 270 (З) >10 км    9/3 1000 м средняя, верхняя 
[Sc|Ac trans|Cc]
+22.7 +12.1 51 +27  1007.3  1.8  749  276           
06 21.08.12 290 (З) 3{10}  >10 км    10/4 600 м кучево-дожд., средняя 
[Cb cap|Ac As]
+19.2 +9.9 55 +21  1008.4  0.9  749  280           
12 21.08.12 270 (З) 3{10}  >10 км    10/3 1000 м средняя 
[Sc diur, vesp|Ac As]
+15 +10.9 77 +17  1010.5  1.3  751  285    +24.1       
15 21.08.12 200 (Ю) >10 км    10/0 средняя 
[Ac As]
+13.6 +12.1 91 +19  1011  0.5  751  286           
18 21.08.12 360 (С) >10 км    10/0 средняя 
[Ac As]
+13 +11.7 92 +17  1010.9  -0.1  751  287           
21 21.08.12 290 (З) >10 км    10/0 средняя 
[Ac und]
+12 +10.7 92 +15  1010.9  751  288           
00 22.08.12 290 (З) >10 км    10/0 средняя 
[Ac und]
+15 +11.7 81 +19  1011.3  0.4  752  285  +11.9         
03 22.08.12 230 (ЮЗ) >10 км    9/1 1000 м средняя, верхняя 
[Cu med, cong|Ac trans|Cc]
+19.2 +13.2 68 +26  1010.1  -1.1  751  280           
06 22.08.12 250 (З) >10 км    9/1 1000 м средняя, верхняя 
[Cu med, cong|Ac trans|Ci fib]
+21 +12.3 58 +25  1008.4  -1.5  750  278           
09 22.08.12 250 (З) >10 км    3/1 1000 м средняя 
[Sc diur, vesp|Ac lent]
+19.9 +11 56 +23  1008.5  -0.1  750  279    +21.3       
12 22.08.12 320 (СЗ) >10 км    8/1 1000 м средняя 
[Sc diur, vesp|Ac trans]
+15.5 +11 75 +19  1011  2.4  751  284    +21.3       
15 22.08.12 270 (З) >10 км    1/0 средняя 
[Ac trans]
+13.5 +11.6 88 +18  1012.2  1.2  752  287           
18 22.08.12 200 (Ю) >10 км    ясно 
+10.6 +9.5 93 +12  1013.7  1.3  753  290           
21 22.08.12 360 (С) >10 км    ясно 
+8.4 +7.8 96 +9  1016.1  2.3  755  294           
00 23.08.12 230 (ЮЗ) >10 км    3/0 средняя 
[Ac trans]
+16.5 +11.3 71 +21  1016.7  756  285  +7.9         
03 23.08.12 250 (З) >10 км    8/3 1000 м верхняя 
[Cu med, cong|Cc]
+22.2 +11.5 51 +25  1017  0.4  756  280           
06 23.08.12 250 (З) >10 км    6/4 1000 м средняя, верхняя 
[Cu med, cong|Ac lent|Ci fib]
+23.9 +10.6 43 +26  1015.9  -1.1  755  278           
12 23.08.12 230 (ЮЗ) >10 км    1/0 средняя 
[Ac lent]
+15.1 +12.7 86 +21  1016.9  0.9  756  286    +24.3       
15 23.08.12 140 (ЮВ) >10 км    10/0 средняя 
[Ac und]
+14.3 +12.7 90 +21  1017.1  0.2  756  287           
18 23.08.12 тихо ()   >10 км    8/0 средняя 
[Ac trans]
+12.6 +11.3 92 +15  1016.9  -0.2  756  289           
21 23.08.12 090 (В) >10 км  туман поземный  ясно 
+10.8 +10.4 97 +14  1016.6  -0.5  755  291           
00 24.08.12 250 (З) >10 км    3/0 верхняя 
[Ci fib]
+18.4 +14.4 78 +26  1016.7  0.5  756  282  +10.3         
03 24.08.12 230 (ЮЗ) >10 км    8/0 верхняя 
[Ci]
+23.1 +13.5 55 +29  1015.5  -1.1  755  278           
06 24.08.12 250 (З) >10 км    3/0 верхняя 
[Cc]
+25.6 +15.8 55 +36  1014.4  -0.9  754  275           
09 24.08.12 250 (З) >10 км    ясно 
+25 +17 61 +37  1014.2  -0.4  754  275    +26.4       
12 24.08.12 тихо ()   >10 км    ясно 
+19.8 +16.8 83 +32  1014.8  0.5  754  280    +26.4       
15 24.08.12 110 (В) >10 км  местами туман поземный  ясно 
+16.6 +15.9 96 +28  1014.9  0.1  754  283           
18 24.08.12 050 (СВ) 1000 м  дымка  ясно 
+14.4 +14.2 99 +23  1015.1  754  286           
21 24.08.12 070 (В) 0200 м  туман  ?/?  
+14.3 +14.3 100 +23  1015.5  0.4  755  286           
00 25.08.12 110 (В) 0500 м  туман  ?/?  
+14.8 +13.9 94 +23  1015.8  0.3  755  286  +13.4         
03 25.08.12 090 (В) >10 км  {туман}  1/1 300 м 
[St]
+19.5 +16.9 85 +33  1013.9  -1.7  754  280           
06 25.08.12 180 (Ю) >10 км  {туман}  1/1 1000 м 
[Cu hum]
+26.9 +18.3 59 +42  1011.1  -2.5  752  272           
09 25.08.12 200 (Ю) >10 км    1/1 1000 м 
[Sc diur, vesp]
+26.1 +18.8 64 +42  1009.7  -1.4  751  272    +27.8       
12 25.08.12 тихо ()   >10 км    1/1 1000 м 
[Cu hum]
+19.8 +18.2 91 +34  1010.4  0.4  751  278    +27.8       
15 25.08.12 тихо ()   >10 км    ясно 
+17.3 +16.5 95 +29  1010.6  0.2  751  281           
18 25.08.12 тихо ()   >10 км  местами туман поземный  1/0 
[St]
+15 +14.7 98 +23  1010.3  -0.4  751  284           
21 25.08.12 тихо ()   1000 м  в посл. час туман  6/0 кучево-дожд., верхняя 
[Cb calv|Ci fib]
+13.8 +13.8 100 +20  1010.5  0.2  751  285           
00 26.08.12 230 (ЮЗ) >10 км  {туман}  6/0 верхняя 
[Cc]
+21.1 +18.7 86 +37  1010.6  0.4  751  277  +13.7         
03 26.08.12 250 (З) >10 км    4/1 1000 м верхняя 
[Cu hum|Ci fib]
+27.2 +18.8 60 +43  1010.2  -0.3  751  271           
06 26.08.12 270 (З) >10 км    4/3 600 м кучево-дожд., верхняя 
[Cb calv|Ci fib]
+29.2 +18.7 53 +45  1009.6  -0.6  751  269           
09 26.08.12 250 (З) >10 км    1/1 600 м кучево-дожд. 
[Cb cap]
+26.8 +20.8 70 +47  1009.8  0.2  751  270    +29.6       
12 26.08.12 340 (С) >10 км    4/0 верхняя 
[Ci fib]
+21.2 +18.7 86 +37  1011.6  1.7  752  277    +29.6       
15 26.08.12 360 (С) >10 км    3/0 средняя 
[Ac trans]
+17.3 +15.4 89 +28  1013  1.2  753  282           
18 26.08.12 050 (СВ) >10 км  в посл. час ливневой дождь  9/8 600 м кучево-дожд., средняя 
[Cb cap|Ac lent]
+17.6 +14.9 84 +27  1013.7  0.7  753  282           
21 26.08.12 050 (СВ) >10 км    10/8 600 м кучево-дожд., средняя 
[Cb cap|Ac lent]
+16 +13.5 85 +23  1015.2  1.5  755  285           
00 27.08.12 050 (СВ) >10 км    4/0 верхняя 
[Cc]
+20.8 +14.5 67 +28  1015.1  755  280  +15.7         
03 27.08.12 160 (Ю) >10 км    8/0 средняя, верхняя 
[Ac lent|Cc]
+26.3 +13.6 45 +32  1014.8  -0.1  755  275           
06 27.08.12 140 (ЮВ) >10 км    8/0 средняя, верхняя 
[Ac cuf|Cc]
+28.5 +15.3 45 +38  1013.8  -1  754  272           
09 27.08.12 110 (В) >10 км    4/0 средняя 
[Ac cuf]
+26.8 +18.5 60 +42  1012.6  -1.2  753  272    +28.8       
12 27.08.12 тихо ()   >10 км    8/0 верхняя 
[Ci fib]
+20.5 +18.9 91 +37  1014.2  1.4  754  278    +28.8       
15 27.08.12 070 (В) >10 км    9/0 средняя, верхняя 
[Ac lent|Cc]
+19 +17.7 92 +35  1014.1  -0.2  754  280           
18 27.08.12 320 (СЗ) >10 км    10/0 средняя 
[Ac lent]
+18 +17.2 95 +32  1014.1  754  281           
21 27.08.12 070 (В) 10 км  слаб. ливневой дождь  10/8 600 м кучево-дожд., средняя 
[Cb cap|Ac lent]
+18.3 +17.1 93 +32  1013.3  -0.8  753  281           
00 28.08.12 050 (СВ) 4000 м  дымка{ливн. осадки}  10/8 1000 м средняя 
[Sc|Ac lent]
+19 +18 94 +35  1013  -0.3  753  279  +17.9    0.5     
03 28.08.12 140 (ЮВ) 4000 м  дымка  10/4 600 м средняя 
[Sc|Ac trans]
+21.9 +19.2 85 +39  1011.4  -1.4  752  276           
06 28.08.12 230 (ЮЗ) >10 км    10/8 600 м кучево-дожд., средняя 
[Cb cap|Ac As]
+24.6 +20.8 79 +45  1009.6  -1.8  751  272           
09 28.08.12 200 (Ю) >10 км    9/5 1000 м средняя, верхняя 
[Sc diur, vesp|Ac trans|Ci fib]
+24 +21 83 +45  1009.1  -0.5  750  273    +25       
12 28.08.12 тихо ()   >10 км    9/1 1000 м средняя 
[Sc diur, vesp|Ac trans]
+21.4 +20.6 95 +41  1009  -0.1  750  275    +25  0.4     
15 28.08.12 090 (В) >10 км    10/0 средняя 
[Ac As]
+20 +19.2 95 +37  1008.4  -0.8  749  277           
18 28.08.12 110 (В) 10 км  ливневой дождь  10/10 600 м кучево-дожд. 
[Cb cap]
+19.4 +18.8 96 +36  1006.7  -1.7  748  277           
21 28.08.12 110 (В) 2000 м  слаб. морось{ливн. осадки}  10/10 200 м 
+20.9 +20.7 99 +41  1005  -1.5  747  274           
00 29.08.12 090 (В) 2000 м  дождь{ливн. осадки}  10/10 100 м 
[Frnb|Ns]
+21 +20.8 99 +42  1001.5  -3.4  745  273  +18.9       
03 29.08.12 110 (В) 2000 м  ливневой дождь{гроза}  10/10 200 м кучево-дожд. 
[Cb cap]
+20 +19.7 98 +38  999.6  -1.9  743  274           
06 29.08.12 180 (Ю) 4{10}  4000 м  слаб. ливневой дождь{гроза}  10/10 200 м кучево-дожд. 
[Cb cap]
+19.5 +19 97 +37  994.3  -5.5  739  273           
12 29.08.12 110 (В) 4{10}  2000 м  дождь{ливн. осадки}  10/10 300 м 
[Frnb|Ns]
+19.8 +19.6 99 +39  987.1  -3.3  734  271    +2.1  74     
15 29.08.12 180 (Ю) 2000 м  дождь  10/10 300 м 
[Ns]
+20.7 +20.5 99 +41  984.6  -2.3  732  269           
18 29.08.12 360 (С) 2000 м  дождь  10/10 300 м 
[Ns]
+20.4 +20.1 98 +40  983.9  -0.7  731  269           
21 29.08.12 320 (СЗ) 10 км  слаб. дождь  10/10 300 м 
[Frnb|Ns]
+16.8 +14.9 89 +25  989.4  5.3  735  276           
00 30.08.12 320 (СЗ) 8-14{14}  >10 км  {дождь}  4/1 600 м средняя 
[Sc|Ac As]
+16.6 +12.8 78 +21  994.3  4.8  739  278  +14.9    45     
03 30.08.12 290 (З) >10 км    9/9 600 м кучево-дожд. 
[Cb cap]
+18.2 +12.9 71 +23  998.6  4.3  742  278           
06 30.08.12 320 (СЗ) 5-12{12}  >10 км    8/3 600 м кучево-дожд., средняя, верхняя 
[Cb cap|Ac trans|Cc]
+21.6 +13.3 59 +28  1000.8  2.4  744  275           
12 30.08.12 110 (В) >10 км  {ливн. осадки}  6/0 средняя 
[Ac lent]
+15.5 +13.9 90 +24  1008.9  4.1  750  283    +22.1     
15 30.08.12 340 (С) >10 км    ясно 
+13.1 +12 93 +18  1010.4  1.5  751  286           
18 30.08.12 180 (Ю) >10 км    ясно 
+11 +10.2 95 +13  1012.7  2.1  752  290           
21 30.08.12 тихо ()   >10 км  туман поземный  3/0 верхняя 
[Cc]
+10.8 +10.6 99 +13  1014.6  1.8  754  290           
00 31.08.12 090 (В) >10 км    3/1 1000 м средняя, верхняя 
[Cu hum|Ac lent|Ci fib]
+16.5 +14 85 +25  1015.6  1.2  755  284  +10.4    0.0     
03 31.08.12 230 (ЮЗ) >10 км    3/1 1000 м средняя, верхняя 
[Cu hum|Ac cuf|Ci fib]
+21.4 +15.4 69 +31  1015.9  0.6  755  279           
06 31.08.12 180 (Ю) >10 км    5/1 1000 м средняя, верхняя 
[Cu hum|Ac trans|Ci fib]
+23.7 +15.8 61 +34  1015.6  -0.3  755  277           
09 31.08.12 160 (Ю) >10 км    8/0 средняя, верхняя 
[Ac cast|Ci]
+22.6 +16.4 68 +34  1016  0.4  755  278    +24.4       
12 31.08.12 тихо ()   >10 км    8/0 средняя, верхняя 
[Ac lent|Ci]
+16.6 +15.6 94 +26  1017.4  1.3  756  284    +24.4       
15 31.08.12 090 (В) >10 км    1/0 средняя 
[Ac lent]
+15.2 +14.5 96 +25  1018.5  0.9  757  286           
18 31.08.12 050 (СВ) >10 км    1/0 средняя 
[Ac lent]
+13.5 +13 97 +20  1018.4  -0.1  757  288           
21 31.08.12 тихо ()   >10 км  местами туман поземный  1/0 средняя 
[Ac cast]
+11.8 +11.6 99 +15  1018.9  0.5  757  290           
00 01.09.12 090 (В) >10 км    3/1 1000 м средняя 
[Cu hum|Ac cast]
+18.5 +15.8 84 +29  1018.4  -0.3  757  282           
03 01.09.12 020 (С) >10 км    8/3 1000 м средняя, верхняя 
[Cu hum|Ac trans|Cc]
+23.2 +17.4 70 +36  1017.5  0.8  756  277           
06 01.09.12 180 (Ю) >10 км    6/5 1000 м средняя 
[Cu med, cong|Ac trans]
+25.4 +17.4 61 +38  1015.1  -2.2  755  274           
12 01.09.12 тихо ()   >10 км    9/9 1320 м 
[Sc]
+20.8 +18.9 89 +37  1015.5  755  278           
15 01.09.12 тихо ()   >10 км    9/6 1380 м верхняя 
[Sc|Ci]
+19.6 +18.8 95 +35  1015.6  755  279           
18 01.09.12 тихо ()   >10 км  туман поземный  10/0 средняя, верхняя 
[Ac trans|Cs]
+17.1 +16.4 96 +28  1014.8  -0.8  754  282           
00 02.09.12 180 (Ю) 0500 м  туман  ?/?  
+18.8 +18.3 97 +35  1014.2  -0.3  754  280           
06 02.09.12 250 (З) >10 км  {туман}  9/6 600 м кучево-дожд., средняя, верхняя 
[Cb cap|Ac trans|Cc]
+24.9 +20.8 78 +45  1010.3  -1.9  751  272           
12 02.09.12 090 (В) >10 км    10/6 600 м кучево-дожд., средняя, верхняя 
[Cb cap|Ac lent|Cc]
+21.5 +20.9 96 +42  1010  0.5  751  275           
15 02.09.12 тихо ()   0500 м  туман  10/8 600 м кучево-дожд., средняя 
[Cb cap|Ac trans]
+20.3 +20 98 +39  1010  751  277           
18 02.09.12 110 (В) 10 км  в посл. час туман  10/10 210 м 
[St]
+17.1 +16.3 95 +28  1010.9  0.7  751  281           
21 02.09.12 160 (Ю) >10 км    10/10 270 м 
[St]
+12.9 +12 94 +16  1014.1  3.1  754  288  +12.8        влажная 
Время (UTC), дата Ветер
(°,м/с) 
Видим.   Явления Облачность Т
(°С)
Тd
(°С)
f(%) Тe
(°С)
Pmin
(гПа)
dP
(гПа)
Po
(мм)
O2
(г/м3)
Тmin Tmax R s Состояние
почвы